This demonstration page uses our WeatherBlox Daily Observations layout. Learn more.

Left ArrowRight Arrow

Hourly Observations for September 9, 2020

Temp ( °F °C ) Dew Point ( °F °C ) Humidity (%) Winds ( mph kmh ) Pressure ( in mb ) Visibility ( mi km ) Precip ( " mm )
12:59 am 00:59 Cloudy 78 25.6 73 22.8 85 85 E 10 17 30.13 1020 8 13 0.00 0.00
1:59 am 01:59 Cloudy with Light Rain 78 25.6 74 23.3 87 87 ENE 14 22 30.12 1020 6 10 0.00 0.00
2:59 am 02:59 Cloudy 78 25.6 74 23.3 87 87 ENE 12 19 30.11 1020 8 13 0.00 0.00
3:59 am 03:59 Cloudy 78 25.6 74 23.3 87 87 ENE 9 15 30.10 1019 7 11 0.02 0.51
4:59 am 04:59 Cloudy with Light Rain 78 25.6 74 23.3 87 87 ENE 14 22 30.10 1019 6 10 0.02 0.51
5:59 am 05:59 Cloudy with Mist and Fog 77 25 74 23.3 90 90 E 14 22 30.11 1020 4 6 0.32 8.13
6:59 am 06:59 Cloudy 77 25 74 23.3 90 90 E 8 13 30.13 1020 9 14 0.01 0.25
7:59 am 07:59 Cloudy 78 25.6 75 23.9 90 90 ENE 8 13 30.16 1022 8 13 0.00 0.00
8:55 am 08:55 Cloudy with Rain 79 26 73 23 84 84 ENE 10 17 30.17 1022 2 3 0.06 1.52
8:59 am 08:59 Cloudy with Light Rain 78 25.6 74 23.3 87 87 ENE 10 17 30.16 1022 3 5 0.06 1.52
9:59 am 09:59 Cloudy 79 26.1 75 23.9 88 88 ENE 9 15 30.17 1022 10 16 0.00 0.00
10:06 am 10:06 Cloudy 79 26.1 75 23.9 88 88 ENE 10 17 30.18 1022 10 16 0.00 0.00
10:59 am 10:59 Cloudy 81 27.2 74 23.3 79 79 ENE 15 24 30.18 1022 10 16 0.00 0.00
11:59 am 11:59 Cloudy 80 26.7 73 22.8 79 79 ENE 15 24 30.20 1023 10 16 0.00 0.00
12:59 pm 12:59 Cloudy 80 26.7 74 23.3 82 82 E 10 17 30.19 1022 9 14 0.00 0.00
1:59 pm 13:59 Cloudy 80 26.7 74 23.3 82 82 ENE 15 24 30.17 1022 10 16 0.00 0.00
2:59 pm 14:59 Cloudy 80 26.7 74 23.3 82 82 E 14 22 30.16 1022 8 13 0.00 0.00
3:59 pm 15:59 Cloudy 80 26.7 74 23.3 82 82 ENE 14 22 30.15 1021 9 14 0.00 0.00
4:59 pm 16:59 Cloudy 80 26.7 75 23.9 85 85 ENE 14 22 30.16 1022 9 14 0.00 0.00
5:59 pm 17:59 Cloudy 80 26.7 75 23.9 85 85 ENE 12 19 30.18 1022 8 13 0.00 0.00
6:04 pm 18:04 Cloudy 80 26.7 75 23.9 85 85 E 9 15 30.18 1022 8 13 0.00 0.00
6:50 pm 18:50 Cloudy 78 25.6 72 22.2 82 82 ESE 12 19 30.17 1022 7 11 0.00 0.00
6:59 pm 18:59 Cloudy 78 25.6 71 21.7 79 79 ESE 10 17 30.17 1022 10 16 0.00 0.00
7:59 pm 19:59 Cloudy 77 25 72 22.2 85 85 E 8 13 30.18 1022 10 16 0.00 0.00
8:59 pm 20:59 Mostly Cloudy 78 25.6 73 22.8 85 85 E 8 13 30.19 1022 9 14 0.00 0.00
9:59 pm 21:59 Mostly Cloudy 78 25.6 73 22.8 85 85 E 12 19 30.19 1022 9 14 0.00 0.00
10:23 pm 22:23 Cloudy 78 25.6 73 22.8 85 85 E 12 19 30.19 1022 9 14 0.00 0.00
10:59 pm 22:59 Cloudy 78 25.6 74 23.3 87 87 E 9 15 30.19 1022 9 14 0.00 0.00
11:59 pm 23:59 Cloudy 78 25.6 74 23.3 87 87 E 8 13 30.19 1022 7 11 0.00 0.00

Powered by AerisWeather